TimeEDT,TemperatureF,Dew PointF,Humidity,Sea Level PressureIn,VisibilityMPH,Wind Direction,Wind SpeedMPH,Gust SpeedMPH,PrecipitationIn,Events,Conditions,WindDirDegrees,DateUTC
12:56 AM,62.1,48.9,62,29.89,10.0,NNW,12.7,-,N/A,,Mostly Cloudy,340,2013-06-04 04:56:00
1:56 AM,57.9,46.9,67,29.91,10.0,NNW,10.4,-,N/A,,Clear,340,2013-06-04 05:56:00
2:56 AM,55.9,46.0,69,29.91,10.0,NNW,9.2,-,N/A,,Clear,340,2013-06-04 06:56:00
3:56 AM,54.0,43.0,66,29.91,10.0,NNW,11.5,-,N/A,,Clear,330,2013-06-04 07:56:00
4:56 AM,54.0,43.0,66,29.93,10.0,NNW,10.4,-,N/A,,Clear,330,2013-06-04 08:56:00
5:56 AM,53.1,43.0,69,29.95,10.0,NW,10.4,-,N/A,,Clear,320,2013-06-04 09:56:00
6:56 AM,55.0,43.0,64,29.97,10.0,NW,9.2,-,N/A,,Clear,320,2013-06-04 10:56:00
7:56 AM,57.0,42.1,57,29.98,10.0,NW,13.8,-,N/A,,Clear,320,2013-06-04 11:56:00
8:56 AM,59.0,42.1,53,30.00,10.0,NNW,9.2,-,N/A,,Clear,330,2013-06-04 12:56:00
9:56 AM,61.0,43.0,52,30.01,10.0,WNW,6.9,-,N/A,,Clear,300,2013-06-04 13:56:00
10:56 AM,63.0,44.1,50,30.01,10.0,WNW,9.2,-,N/A,,Clear,290,2013-06-04 14:56:00
11:56 AM,64.0,42.1,45,30.03,10.0,West,10.4,-,N/A,,Clear,280,2013-06-04 15:56:00
12:56 PM,66.9,42.1,40,30.01,10.0,WNW,12.7,-,N/A,,Clear,290,2013-06-04 16:56:00
1:56 PM,69.1,45.0,42,29.99,10.0,NW,13.8,20.7,N/A,,Clear,310,2013-06-04 17:56:00
2:56 PM,70.0,41.0,35,29.99,10.0,WNW,13.8,-,N/A,,Clear,290,2013-06-04 18:56:00
3:56 PM,72.0,43.0,35,29.99,10.0,West,10.4,17.3,N/A,,Clear,280,2013-06-04 19:56:00
4:56 PM,73.0,39.9,30,29.98,10.0,WNW,10.4,-,N/A,,Clear,290,2013-06-04 20:56:00
5:56 PM,73.0,37.0,27,29.99,10.0,WNW,15.0,19.6,N/A,,Clear,290,2013-06-04 21:56:00
6:56 PM,71.1,37.9,30,30.00,10.0,NW,8.1,-,N/A,,Clear,320,2013-06-04 22:56:00
7:56 PM,66.9,43.0,42,30.02,10.0,NW,3.5,-,N/A,,Clear,320,2013-06-04 23:56:00
8:56 PM,62.1,45.0,53,30.05,10.0,Calm,Calm,-,N/A,,Clear,0,2013-06-05 00:56:00
9:56 PM,61.0,43.0,52,30.08,10.0,West,5.8,-,N/A,,Clear,280,2013-06-05 01:56:00
10:56 PM,57.9,45.0,62,30.10,10.0,NW,5.8,-,N/A,,Clear,310,2013-06-05 02:56:00
11:56 PM,57.0,44.1,62,30.11,10.0,NW,6.9,-,N/A,,Clear,320,2013-06-05 03:56:00